TimePDT,TemperatureF,Dew PointF,Humidity,Sea Level PressureIn,VisibilityMPH,Wind Direction,Wind SpeedMPH,Gust SpeedMPH,PrecipitationIn,Events,Conditions,WindDirDegrees,DateUTC
12:55 AM,35.1,30.0,82,29.96,10.0,Calm,Calm,-,N/A,,Mostly Cloudy,0,2013-03-27 07:55:00
1:55 AM,36.0,32.0,86,29.95,10.0,North,3.5,-,N/A,,Overcast,360,2013-03-27 08:55:00
2:55 AM,36.0,32.0,86,29.93,10.0,Calm,Calm,-,N/A,,Overcast,0,2013-03-27 09:55:00
3:55 AM,37.0,32.0,82,29.92,10.0,Calm,Calm,-,N/A,,Overcast,0,2013-03-27 10:55:00
4:55 AM,37.0,32.0,82,29.92,10.0,East,3.5,-,N/A,,Overcast,100,2013-03-27 11:55:00
5:55 AM,37.0,32.0,82,29.92,10.0,Calm,Calm,-,N/A,,Overcast,0,2013-03-27 12:55:00
6:55 AM,37.0,33.1,86,29.94,10.0,Calm,Calm,-,N/A,,Overcast,0,2013-03-27 13:55:00
7:55 AM,39.0,34.0,82,29.95,10.0,Calm,Calm,-,N/A,,Overcast,0,2013-03-27 14:55:00
8:55 AM,46.0,35.1,66,29.93,10.0,SSE,4.6,-,N/A,,Mostly Cloudy,160,2013-03-27 15:55:00
9:55 AM,50.0,34.0,54,29.92,10.0,Variable,4.6,-,N/A,,Partly Cloudy,0,2013-03-27 16:55:00
10:55 AM,54.0,32.0,43,29.91,10.0,South,11.5,-,N/A,,Overcast,190,2013-03-27 17:55:00
11:55 AM,57.9,28.9,33,29.90,10.0,South,16.1,21.9,N/A,,Mostly Cloudy,180,2013-03-27 18:55:00
12:48 PM,55.4,32.0,41,29.94,10.0,WSW,10.4,-,N/A,,Mostly Cloudy,240,2013-03-27 19:48:00
12:55 PM,55.0,30.9,40,29.92,10.0,SW,16.1,20.7,N/A,,Scattered Clouds,230,2013-03-27 19:55:00
1:55 PM,55.9,30.0,37,29.90,10.0,WSW,8.1,-,N/A,,Mostly Cloudy,250,2013-03-27 20:55:00
2:55 PM,57.0,30.9,37,29.88,10.0,SW,12.7,-,N/A,,Overcast,230,2013-03-27 21:55:00
3:24 PM,57.2,35.6,44,29.92,10.0,West,15.0,18.4,N/A,,Mostly Cloudy,270,2013-03-27 22:24:00
3:55 PM,57.0,35.1,44,29.89,10.0,WSW,10.4,17.3,N/A,,Mostly Cloudy,240,2013-03-27 22:55:00
4:55 PM,55.0,36.0,49,29.90,10.0,WSW,12.7,-,N/A,,Partly Cloudy,240,2013-03-27 23:55:00
5:55 PM,54.0,37.0,53,29.91,10.0,West,10.4,-,N/A,,Clear,280,2013-03-28 00:55:00
6:55 PM,50.0,37.0,61,29.93,10.0,West,6.9,-,N/A,,Clear,260,2013-03-28 01:55:00
7:55 PM,48.0,37.9,68,29.94,10.0,West,5.8,-,N/A,,Overcast,280,2013-03-28 02:55:00
8:55 PM,45.0,37.9,76,29.96,10.0,East,3.5,-,N/A,,Overcast,100,2013-03-28 03:55:00
9:55 PM,41.0,36.0,82,29.98,10.0,Calm,Calm,-,N/A,,Clear,0,2013-03-28 04:55:00
10:55 PM,37.9,35.1,89,29.98,9.0,Calm,Calm,-,N/A,,Clear,0,2013-03-28 05:55:00
11:55 PM,32.0,30.0,92,29.99,9.0,Calm,Calm,-,N/A,,Clear,0,2013-03-28 06:55:00